When you browse on this site, cookies collect data to enhance your experience and personalize the content and advertising you see.
Visit our Privacy Policy to learn more. By continuing to use the site, you agree to this use of cookies and data.

Hourly Weather Arbela

Today, 24 September, Thursday

Time Temperature Precipitation Wind Pressure Humidity
00:00 +25°C° 0 mm 1 mps 722 mmHg 34%
01:00 +24°C° 0 mm 1 mps 722 mmHg 35%
02:00 +24°C° 0 mm 1 mps 722 mmHg 35%
03:00 +24°C° 0 mm 1 mps 722 mmHg 37%
04:00 +24°C° 0 mm 1 mps 722 mmHg 37%
05:00 +23°C° 0 mm 1 mps 723 mmHg 36%
06:00 +23°C° 0 mm 1 mps 723 mmHg 36%
07:00 +26°C° 0 mm 1 mps 723 mmHg 31%
08:00 +29°C° 0 mm 1 mps 723 mmHg 25%
09:00 +33°C° 0 mm 1 mps 724 mmHg 20%
10:00 +34°C° 0 mm 1 mps 724 mmHg 18%
11:00 +35°C° 0 mm 1 mps 724 mmHg 16%
12:00 +38°C° 0 mm 2 mps 724 mmHg 14%
13:00 +38°C° 0 mm 2 mps 723 mmHg 13%
14:00 +39°C° 0 mm 3 mps 723 mmHg 12%
15:00 +39°C° 0 mm 3 mps 722 mmHg 11%
16:00 +37°C° 0 mm 3 mps 722 mmHg 13%
17:00 +35°C° 0 mm 3 mps 722 mmHg 15%
18:00 +32°C° 0 mm 2 mps 722 mmHg 18%
19:00 +30°C° 0 mm 2 mps 722 mmHg 20%
20:00 +29°C° 0 mm 2 mps 723 mmHg 22%
21:00 +28°C° 0 mm 1 mps 723 mmHg 24%
22:00 +27°C° 0 mm 1 mps 723 mmHg 27%
23:00 +26°C° 0 mm 1 mps 723 mmHg 29%

Tomorrow, 25 September, Friday

Time Temperature Precipitation Wind Pressure Humidity
00:00 +26°C° 0 mm 1 mps 722 mmHg 32%
01:00 +25°C° 0 mm 1 mps 722 mmHg 33%
02:00 +25°C° 0 mm 1 mps 722 mmHg 33%
03:00 +24°C° 0 mm 1 mps 722 mmHg 34%
04:00 +24°C° 0 mm 1 mps 722 mmHg 35%
05:00 +24°C° 0 mm 1 mps 722 mmHg 36%
06:00 +23°C° 0 mm 1 mps 722 mmHg 36%
07:00 +26°C° 0 mm 1 mps 722 mmHg 31%
08:00 +29°C° 0 mm 1 mps 723 mmHg 26%
09:00 +32°C° 0 mm 1 mps 723 mmHg 21%
10:00 +35°C° 0 mm 2 mps 723 mmHg 20%
11:00 +36°C° 0 mm 3 mps 723 mmHg 18%
12:00 +37°C° 0 mm 3 mps 723 mmHg 17%
13:00 +38°C° 0 mm 4 mps 722 mmHg 16%
14:00 +38°C° 0 mm 4 mps 722 mmHg 15%
15:00 +40°C° 0 mm 4 mps 722 mmHg 14%
16:00 +37°C° 0 mm 3 mps 721 mmHg 16%
17:00 +34°C° 0 mm 3 mps 721 mmHg 18%
18:00 +31°C° 0 mm 2 mps 721 mmHg 21%
19:00 +30°C° 0 mm 2 mps 721 mmHg 23%
20:00 +29°C° 0 mm 1 mps 721 mmHg 26%
21:00 +28°C° 0 mm 1 mps 722 mmHg 28%
22:00 +27°C° 0 mm 1 mps 721 mmHg 29%
23:00 +27°C° 0 mm 1 mps 721 mmHg 30%

Day after tomorrow, 26 September, Saturday

Time Temperature Precipitation Wind Pressure Humidity
00:00 +27°C° 0 mm 1 mps 721 mmHg 31%
01:00 +26°C° 0 mm 1 mps 721 mmHg 33%
02:00 +25°C° 0 mm 1 mps 720 mmHg 34%
03:00 +25°C° 0 mm 1 mps 720 mmHg 36%
04:00 +24°C° 0 mm 1 mps 720 mmHg 36%
05:00 +24°C° 0 mm 1 mps 720 mmHg 37%
06:00 +24°C° 0 mm 1 mps 721 mmHg 37%
07:00 +27°C° 0 mm 1 mps 721 mmHg 32%
08:00 +30°C° 0 mm 1 mps 721 mmHg 26%
09:00 +33°C° 0 mm 1 mps 722 mmHg 21%
10:00 +34°C° 0 mm 1 mps 722 mmHg 19%
11:00 +37°C° 0 mm 2 mps 721 mmHg 16%
12:00 +38°C° 0 mm 3 mps 721 mmHg 14%
13:00 +40°C° 0 mm 4 mps 721 mmHg 13%
14:00 +40°C° 0 mm 4 mps 721 mmHg 13%
15:00 +41°C° 0 mm 5 mps 720 mmHg 12%
16:00 +37°C° 0 mm 4 mps 720 mmHg 14%
17:00 +35°C° 0 mm 3 mps 720 mmHg 17%
18:00 +32°C° 0 mm 2 mps 720 mmHg 19%
19:00 +30°C° 0 mm 2 mps 720 mmHg 21%
20:00 +29°C° 0 mm 1 mps 721 mmHg 23%
21:00 +28°C° 0 mm 1 mps 721 mmHg 25%
22:00 +27°C° 0 mm 1 mps 721 mmHg 25%
23:00 +27°C° 0 mm 1 mps 721 mmHg 26%

27 September, Sunday

Time Temperature Precipitation Wind Pressure Humidity
00:00 +27°C° 0 mm 1 mps 721 mmHg 27%
01:00 +27°C° 0 mm 1 mps 721 mmHg 27%
02:00 +26°C° 0 mm 2 mps 721 mmHg 26%
03:00 +26°C° 0 mm 2 mps 721 mmHg 26%
04:00 +26°C° 0 mm 2 mps 721 mmHg 27%
05:00 +25°C° 0 mm 2 mps 721 mmHg 27%
06:00 +25°C° 0 mm 1 mps 722 mmHg 28%
07:00 +28°C° 0 mm 1 mps 722 mmHg 24%
08:00 +31°C° 0 mm 1 mps 723 mmHg 20%
09:00 +33°C° 0 mm 1 mps 723 mmHg 17%
10:00 +36°C° 0 mm 2 mps 723 mmHg 15%
11:00 +38°C° 0 mm 3 mps 723 mmHg 14%
12:00 +40°C° 0 mm 4 mps 723 mmHg 13%
13:00 +40°C° 0 mm 4 mps 722 mmHg 12%
14:00 +41°C° 0 mm 4 mps 722 mmHg 12%
15:00 +41°C° 0 mm 4 mps 722 mmHg 11%
16:00 +38°C° 0 mm 4 mps 721 mmHg 13%
17:00 +36°C° 0 mm 3 mps 721 mmHg 14%
18:00 +34°C° 0 mm 3 mps 721 mmHg 16%
19:00 +31°C° 0 mm 3 mps 722 mmHg 17%
20:00 +30°C° 0 mm 2 mps 722 mmHg 19%
21:00 +29°C° 0 mm 1 mps 723 mmHg 20%
22:00 +28°C° 0 mm 1 mps 723 mmHg 21%
23:00 +27°C° 0 mm 1 mps 723 mmHg 22%

28 September, Monday

Time Temperature Precipitation Wind Pressure Humidity
00:00 +27°C° 0 mm 1 mps 723 mmHg 23%
01:00 +26°C° 0 mm 1 mps 723 mmHg 23%
02:00 +26°C° 0 mm 1 mps 723 mmHg 24%
03:00 +26°C° 0 mm 2 mps 723 mmHg 25%
04:00 +26°C° 0 mm 2 mps 723 mmHg 25%
05:00 +25°C° 0 mm 2 mps 723 mmHg 26%
06:00 +25°C° 0 mm 2 mps 723 mmHg 26%
07:00 +29°C° 0 mm 2 mps 724 mmHg 22%
08:00 +32°C° 0 mm 2 mps 724 mmHg 19%
09:00 +36°C° 0 mm 2 mps 724 mmHg 15%
10:00 +38°C° 0 mm 2 mps 724 mmHg 14%
11:00 +39°C° 0 mm 2 mps 724 mmHg 12%
12:00 +41°C° 0 mm 2 mps 724 mmHg 11%
13:00 +41°C° 0 mm 2 mps 723 mmHg 11%
14:00 +41°C° 0 mm 2 mps 723 mmHg 10%
15:00 +42°C° 0 mm 2 mps 723 mmHg 10%
16:00 +39°C° 0 mm 2 mps 722 mmHg 11%
17:00 +37°C° 0 mm 2 mps 722 mmHg 13%
18:00 +34°C° 0 mm 2 mps 722 mmHg 15%
19:00 +32°C° 0 mm 2 mps 722 mmHg 17%
20:00 +31°C° 0 mm 2 mps 723 mmHg 18%
21:00 +30°C° 0 mm 2 mps 723 mmHg 20%
22:00 +30°C° 0 mm 2 mps 723 mmHg 21%
23:00 +29°C° 0 mm 3 mps 723 mmHg 22%

29 September, Tuesday

Time Temperature Precipitation Wind Pressure Humidity
00:00 +29°C° 0 mm 3 mps 723 mmHg 23%
01:00 +28°C° 0 mm 3 mps 723 mmHg 24%
02:00 +28°C° 0 mm 3 mps 723 mmHg 25%
03:00 +27°C° 0 mm 3 mps 723 mmHg 26%
04:00 +27°C° 0 mm 3 mps 723 mmHg 27%
05:00 +26°C° 0 mm 2 mps 723 mmHg 28%
06:00 +26°C° 0 mm 2 mps 723 mmHg 30%
07:00 +29°C° 0 mm 2 mps 723 mmHg 25%
08:00 +31°C° 0 mm 3 mps 723 mmHg 21%
09:00 +35°C° 0 mm 3 mps 724 mmHg 17%
10:00 +37°C° 0 mm 2 mps 723 mmHg 16%
11:00 +38°C° 0 mm 2 mps 723 mmHg 14%
12:00 +40°C° 0 mm 2 mps 722 mmHg 13%
13:00 +40°C° 0 mm 2 mps 722 mmHg 12%
14:00 +41°C° 0 mm 2 mps 721 mmHg 11%
15:00 +41°C° 0 mm 1 mps 721 mmHg 11%
16:00 +39°C° 0 mm 2 mps 721 mmHg 12%
17:00 +37°C° 0 mm 2 mps 720 mmHg 14%
18:00 +34°C° 0 mm 2 mps 720 mmHg 16%
19:00 +33°C° 0 mm 3 mps 720 mmHg 17%
20:00 +33°C° 0 mm 3 mps 720 mmHg 18%
21:00 +31°C° 0 mm 3 mps 721 mmHg 19%
22:00 +30°C° 0 mm 3 mps 720 mmHg 19%
23:00 +30°C° 0 mm 3 mps 720 mmHg 20%
Show more